Weather reports worldwide

Advertisment
Mombasa, Kenya (63820): temperature & dewpoint: 07.12.2019 08:00:00 - 13.12.2019 08:00:00 (EAT)Mombasa, Kenya (63820): wind speed: 07.12.2019 08:00:00 - 13.12.2019 08:00:00 (EAT)Mombasa, Kenya (63820): wind direction: 07.12.2019 08:00:00 - 13.12.2019 08:00:00 (EAT)Mombasa, Kenya (63820): reduced air pressure: 07.12.2019 08:00:00 - 13.12.2019 08:00:00 (EAT)Mombasa, Kenya (63820): visibility: 07.12.2019 08:00:00 - 13.12.2019 08:00:00 (EAT)Mombasa, Kenya (63820): precipitation: 07.12.2019 08:00:00 - 13.12.2019 08:00:00 (EAT)
Date & Time tt [°C] td [°C] ff [km/h] ff [kn] dd ppp [hPa] vv [km] rr [mm]
13.12.2019 08:00:00 - - - - - - - -
13.12.2019 07:00:00 24,0 23,0 8 4 W - 10 -
13.12.2019 06:00:00 23,9 22,8 8 4 W 1011,9 10 -
13.12.2019 05:00:00 24,0 23,0 5 3 WSW - 10 -
13.12.2019 04:00:00 24,0 23,0 0 0 N - 10 -
13.12.2019 03:00:00 24,1 22,7 8 4 W 1010,4 10 0,0
13.12.2019 02:00:00 24,0 23,0 8 4 NW - 10 -
13.12.2019 01:00:00 25,0 23,0 5 3 WSW - 10 -
13.12.2019 00:00:00 25,0 23,5 5 3 N 1011,7 30 -
12.12.2019 23:00:00 25,0 24,0 5 3 WNW - 10 -
12.12.2019 22:00:00 26,0 24,0 5 3 NNW - 10 -
12.12.2019 21:00:00 26,0 24,0 0 0 N - 10 -
12.12.2019 20:00:00 - - - - - - - -
12.12.2019 19:00:00 27,0 23,0 5 3 N - 10 -
12.12.2019 18:00:00 27,5 23,0 9 5 N 1009,0 10 -
12.12.2019 17:00:00 28,0 23,0 16 9 NNW - 10 -
12.12.2019 16:00:00 30,0 24,0 15 8 E - 10 -
12.12.2019 15:00:00 30,7 23,8 13 7 ESE 1008,8 30 0,0
12.12.2019 14:00:00 30,0 23,0 8 4 S - 10 -
12.12.2019 13:00:00 31,0 24,0 13 7 ESE - 10 -
12.12.2019 12:00:00 31,7 23,5 15 8 E 1011,6 30 -
12.12.2019 11:00:00 31,0 24,0 9 5 ENE - 10 -
12.12.2019 10:00:00 30,0 25,0 9 5 N - 10 -
12.12.2019 09:00:00 28,9 25,7 5 3 N 1012,7 30 0,0
12.12.2019 08:00:00 28,0 24,0 8 4 WNW - 10 -
12.12.2019 07:00:00 26,0 25,0 5 3 WNW - 10 -
12.12.2019 06:00:00 25,5 24,8 0 0 N 1011,5 10 -
12.12.2019 05:00:00 25,0 25,0 0 0 N - 10 -
12.12.2019 04:00:00 25,0 24,0 0 0 N - 10 -
12.12.2019 03:00:00 25,5 24,8 0 0 N 1009,8 30 0,0
12.12.2019 02:00:00 26,0 25,0 0 0 N - 10 -
12.12.2019 01:00:00 26,0 25,0 0 0 N - 10 -
12.12.2019 00:00:00 25,8 24,9 0 0 N 1010,9 30 -
11.12.2019 23:00:00 26,0 25,0 8 4 NE - 10 -
11.12.2019 22:00:00 26,0 25,0 8 4 NNE - 10 -
11.12.2019 21:00:00 26,8 25,1 11 6 NE 1010,8 10 0,0
11.12.2019 20:00:00 27,0 25,0 13 7 NE - 10 -
11.12.2019 19:00:00 27,0 25,0 15 8 ENE - 10 -
11.12.2019 18:00:00 29,0 24,8 16 9 ENE 1008,7 30 -
11.12.2019 17:00:00 31,0 24,0 16 9 ENE - 10 -
11.12.2019 16:00:00 31,0 23,0 18 10 ENE - 10 -
11.12.2019 15:00:00 31,8 23,5 16 9 E 1008,2 10 0,0
11.12.2019 14:00:00 32,0 24,0 16 9 ENE - 10 -
11.12.2019 13:00:00 31,0 23,0 29 16 N - 10 -
11.12.2019 12:00:00 31,5 23,5 9 5 NNE 1011,6 30 -
11.12.2019 11:00:00 32,0 24,0 16 9 NNE - 10 -
11.12.2019 10:00:00 31,0 23,0 15 8 NNE - 10 -
11.12.2019 09:00:00 29,4 24,7 15 8 NNE 1013,1 30 0,0
11.12.2019 08:00:00 27,0 25,0 9 5 N - 10 -
11.12.2019 07:00:00 26,0 25,0 5 3 NW - 10 -
11.12.2019 06:00:00 25,0 24,0 5 3 WNW 1011,4 10 -
11.12.2019 05:00:00 25,0 24,0 5 3 NW - 10 -
11.12.2019 04:00:00 25,0 24,0 5 3 N - 10 -
11.12.2019 03:00:00 25,0 24,3 5 3 N 1011,0 30 0,0
11.12.2019 02:00:00 26,0 25,0 8 4 N - 10 -
11.12.2019 01:00:00 26,0 25,0 8 4 NNE - 10 -
11.12.2019 00:00:00 25,9 25,0 8 4 NNE 1011,2 30 -
10.12.2019 23:00:00 26,0 25,0 5 3 NE - 10 -
10.12.2019 22:00:00 26,0 25,0 8 4 NE - 10 -
10.12.2019 21:00:00 26,6 24,6 8 4 NE 1010,6 30 0,0
10.12.2019 20:00:00 27,0 25,0 8 4 NE - 10 -
10.12.2019 19:00:00 28,0 24,0 11 6 NE - 10 -
10.12.2019 18:00:00 29,0 23,4 18 10 ENE 1008,3 30 -
10.12.2019 17:00:00 30,0 23,0 18 10 ENE - 10 -
10.12.2019 16:00:00 31,0 24,0 16 9 NE - 10 -
10.12.2019 15:00:00 30,7 24,0 16 9 ENE 1008,1 30 0,0
10.12.2019 14:00:00 31,0 23,0 13 7 NE - 10 -
10.12.2019 13:00:00 30,0 24,0 8 4 N - 10 -
10.12.2019 12:00:00 32,0 24,2 13 7 NNE 1010,8 30 -
10.12.2019 11:00:00 31,0 23,0 13 7 N - 10 -
10.12.2019 10:00:00 29,0 24,0 13 7 N - 10 -
10.12.2019 09:00:00 28,5 24,1 15 8 N 1012,2 10 -
10.12.2019 08:00:00 27,0 24,0 11 6 NNW - 10 -
10.12.2019 07:00:00 25,0 23,0 8 4 N - 10 -
10.12.2019 06:00:00 24,2 22,7 8 4 N 1010,7 30 -
10.12.2019 05:00:00 24,0 23,0 9 5 N - 10 -
10.12.2019 04:00:00 - - - - - - - -
10.12.2019 03:00:00 24,3 23,1 8 4 NW 1010,3 30 0,0
10.12.2019 02:00:00 - - - - - - - -
10.12.2019 01:00:00 - - - - - - - -
10.12.2019 00:00:00 24,9 23,6 0 0 N 1011,3 30 -
09.12.2019 23:00:00 25,0 24,0 9 5 NNE - 10 -
09.12.2019 22:00:00 26,0 24,0 9 5 ENE - 10 -
09.12.2019 21:00:00 26,3 24,3 11 6 NE 1010,3 30 -
09.12.2019 20:00:00 27,0 25,0 15 8 NE - 10 -
09.12.2019 19:00:00 - - - - - - - -
09.12.2019 18:00:00 29,3 24,2 9 5 NE 1007,5 30 -
09.12.2019 17:00:00 31,0 24,0 13 7 NE - 10 -
09.12.2019 16:00:00 31,0 24,0 11 6 N - 10 -
09.12.2019 15:00:00 30,0 24,0 8 4 NNE 1007,4 30 -
09.12.2019 14:00:00 - - - - - - - -
09.12.2019 13:00:00 28,0 25,0 16 9 N - 10 -
09.12.2019 12:00:00 26,3 25,6 13 7 NW 1009,9 10 -
09.12.2019 11:00:00 25,0 25,0 8 4 N - 9 -
09.12.2019 10:00:00 25,0 25,0 8 4 NE - 9 -
09.12.2019 09:00:00 25,4 24,4 9 5 NE 1011,9 25 -
09.12.2019 08:00:00 25,0 24,0 5 3 N - 10 -
09.12.2019 07:00:00 25,0 24,0 0 0 N - 10 -
09.12.2019 06:00:00 25,0 23,4 8 4 NNW 1009,6 30 -
09.12.2019 05:00:00 25,0 23,0 5 3 WSW - 10 -
09.12.2019 04:00:00 - - - - - - - -
09.12.2019 03:00:00 25,8 24,2 9 5 W 1008,5 30 0,0
09.12.2019 02:00:00 26,0 25,0 5 3 W - 10 -
09.12.2019 01:00:00 - - - - - - - -
09.12.2019 00:00:00 26,7 25,0 4 2 WNW 1009,9 10 -
08.12.2019 23:00:00 - - - - - - - -
08.12.2019 22:00:00 - - - - - - - -
08.12.2019 21:00:00 28,1 25,3 9 5 E 1009,7 30 0,0
08.12.2019 20:00:00 28,0 25,0 8 4 E - 10 -
08.12.2019 19:00:00 28,0 24,0 9 5 ESE - 10 -
08.12.2019 18:00:00 28,8 25,1 8 4 E 1007,1 30 -
08.12.2019 17:00:00 29,0 25,0 9 5 E - 10 -
08.12.2019 16:00:00 31,0 25,0 18 10 NE - 10 -
08.12.2019 15:00:00 31,8 25,1 15 8 E 1005,3 10 0,0
08.12.2019 14:00:00 33,0 26,0 13 7 E - 10 -
08.12.2019 13:00:00 32,0 25,0 15 8 E - 10 -
08.12.2019 12:00:00 32,3 25,2 11 6 SE 1008,9 30 -
08.12.2019 11:00:00 32,0 24,0 8 4 NNW - 10 -
08.12.2019 10:00:00 31,0 25,0 8 4 N - 10 -
08.12.2019 09:00:00 29,3 24,8 5 3 N 1010,9 30 0,0
08.12.2019 08:00:00 - - - - - - - -
08.12.2019 07:00:00 - - - - - - - -
08.12.2019 06:00:00 25,6 24,3 5 3 WNW 1009,3 30 -
08.12.2019 05:00:00 - - - - - - - -
08.12.2019 04:00:00 - - - - - - - -
08.12.2019 03:00:00 25,9 24,6 5 3 WSW 1008,7 30 0,0
08.12.2019 02:00:00 - - - - - - - -
08.12.2019 01:00:00 - - - - - - - -
08.12.2019 00:00:00 26,4 25,0 8 4 N 1010,0 30 -
07.12.2019 23:00:00 - - - - - - - -
07.12.2019 22:00:00 - - - - - - - -
07.12.2019 21:00:00 27,5 24,5 5 3 N 1009,5 30 0,0
07.12.2019 20:00:00 - - - - - - - -
07.12.2019 19:00:00 - - - - - - - -
07.12.2019 18:00:00 29,4 23,0 9 5 S 1006,7 30 -
07.12.2019 17:00:00 - - - - - - - -
07.12.2019 16:00:00 - - - - - - - -
07.12.2019 15:00:00 31,8 22,5 13 7 SSE 1006,2 30 0,0
07.12.2019 14:00:00 - - - - - - - -
07.12.2019 13:00:00 - - - - - - - -
07.12.2019 12:00:00 31,9 23,3 11 6 WSW 1009,2 30 -
07.12.2019 11:00:00 - - - - - - - -
07.12.2019 10:00:00 - - - - - - - -
07.12.2019 09:00:00 28,7 24,7 9 5 W 1011,9 30 -
07.12.2019 08:00:00 - - - - - - - -

tt = temperature
td = dewpoint
ff = wind speed
dd = wind direction
ppp = reduced air pressure
vv = visibility
rr = precipitation

Next stations